Precipitable_Water
1.24 1.34 1.40 1.35 1.32 1.28 1.26 1.27 1.26 1.29 1.29 1.28 1.25 1.24 1.24 1.22 1.19 1.16 1.17 1.14 1.15 1.14 1.16 1.15 1.19 1.24 1.30 1.36 1.36 1.37 1.36 1.36 1.36 1.33 1.27 1.24 1.24 1.22 1.19 1.14 1.07 1.03 1.00 0.96 0.92 0.85 0.80 0.75 0.74 0.72 0.69 0.65 0.64 0.63 0.62 0.63 0.63 0.61 0.60 0.59 0.54 0.55 0.50 0.46 0.44 0.48 0.58 0.60 0.55 0.52 0.52 0.52 0.50 0.48 0.47 0.49 0.49 0.48 0.42 0.45 0.51 0.48 0.49 0.50 0.53
1.19 1.28 1.35 1.36 1.30 1.27 1.27 1.29 1.28 1.29 1.27 1.27 1.24 1.23 1.23 1.20 1.18 1.16 1.12 1.13 1.13 1.14 1.15 1.16 1.17 1.23 1.27 1.32 1.35 1.35 1.35 1.35 1.33 1.30 1.25 1.23 1.21 1.19 1.15 1.11 1.08 1.03 0.98 0.92 0.85 0.80 0.74 0.69 0.69 0.68 0.65 0.64 0.64 0.61 0.62 0.60 0.57 0.54 0.54 0.52 0.51 0.53 0.50 0.46 0.45 0.47 0.54 0.54 0.52 0.54 0.56 0.56 0.50 0.49 0.44 0.44 0.45 0.46 0.45 0.48 0.51 0.52 0.51 0.51 0.52
1.19 1.25 1.28 1.32 1.33 1.30 1.29 1.27 1.26 1.26 1.25 1.25 1.23 1.23 1.22 1.21 1.19 1.13 1.10 1.11 1.13 1.16 1.16 1.15 1.15 1.22 1.29 1.32 1.32 1.31 1.31 1.31 1.31 1.28 1.23 1.20 1.17 1.15 1.13 1.09 1.06 1.00 0.93 0.86 0.80 0.75 0.70 0.69 0.69 0.67 0.66 0.63 0.62 0.62 0.61 0.58 0.56 0.55 0.55 0.50 0.50 0.51 0.51 0.48 0.48 0.46 0.52 0.53 0.56 0.59 0.59 0.54 0.48 0.48 0.44 0.45 0.45 0.48 0.43 0.43 0.45 0.47 0.51 0.54 0.52
1.18 1.22 1.25 1.29 1.35 1.32 1.28 1.26 1.25 1.24 1.23 1.23 1.21 1.21 1.22 1.20 1.18 1.14 1.11 1.10 1.10 1.16 1.18 1.15 1.14 1.20 1.25 1.30 1.30 1.28 1.29 1.29 1.28 1.25 1.21 1.18 1.15 1.13 1.11 1.06 1.02 0.97 0.87 0.81 0.76 0.73 0.69 0.68 0.68 0.66 0.65 0.63 0.63 0.62 0.59 0.57 0.53 0.52 0.48 0.49 0.49 0.50 0.49 0.48 0.47 0.49 0.56 0.56 0.60 0.58 0.58 0.52 0.47 0.47 0.46 0.46 0.45 0.45 0.45 0.47 0.48 0.48 0.50 0.51 0.50
1.15 1.18 1.24 1.27 1.33 1.31 1.26 1.24 1.20 1.21 1.21 1.21 1.19 1.20 1.19 1.18 1.16 1.12 1.11 1.10 1.12 1.14 1.15 1.15 1.14 1.18 1.22 1.26 1.27 1.26 1.26 1.25 1.24 1.22 1.18 1.17 1.15 1.12 1.07 1.02 0.97 0.89 0.83 0.80 0.76 0.72 0.72 0.71 0.69 0.67 0.65 0.65 0.63 0.60 0.59 0.55 0.54 0.52 0.49 0.48 0.48 0.50 0.48 0.46 0.50 0.52 0.57 0.56 0.63 0.57 0.56 0.51 0.47 0.46 0.46 0.44 0.48 0.49 0.54 0.55 0.56 0.52 0.51 0.51 0.47
1.13 1.16 1.21 1.24 1.29 1.29 1.24 1.21 1.18 1.18 1.21 1.20 1.18 1.18 1.18 1.16 1.14 1.13 1.12 1.10 1.12 1.14 1.12 1.12 1.13 1.18 1.24 1.28 1.28 1.26 1.24 1.23 1.23 1.19 1.15 1.15 1.14 1.09 1.04 0.98 0.92 0.86 0.83 0.80 0.75 0.74 0.73 0.74 0.72 0.70 0.67 0.65 0.62 0.61 0.60 0.56 0.55 0.53 0.51 0.49 0.50 0.49 0.48 0.51 0.52 0.54 0.55 0.57 0.60 0.55 0.49 0.45 0.46 0.45 0.47 0.46 0.44 0.46 0.49 0.52 0.54 0.59 0.61 0.56 0.46
1.11 1.14 1.17 1.21 1.23 1.24 1.22 1.18 1.18 1.18 1.21 1.20 1.18 1.17 1.16 1.16 1.14 1.12 1.13 1.13 1.11 1.11 1.12 1.12 1.14 1.19 1.24 1.28 1.26 1.25 1.22 1.22 1.21 1.17 1.13 1.13 1.10 1.05 1.00 0.95 0.90 0.86 0.83 0.78 0.76 0.76 0.77 0.77 0.74 0.72 0.69 0.68 0.65 0.62 0.59 0.58 0.57 0.57 0.54 0.50 0.52 0.51 0.50 0.48 0.52 0.58 0.62 0.59 0.56 0.50 0.47 0.46 0.46 0.45 0.50 0.49 0.48 0.47 0.45 0.46 0.47 0.52 0.50 0.49 0.45
1.08 1.11 1.16 1.18 1.19 1.19 1.20 1.19 1.20 1.20 1.23 1.22 1.18 1.17 1.17 1.16 1.14 1.15 1.15 1.12 1.11 1.11 1.11 1.11 1.15 1.21 1.24 1.26 1.25 1.24 1.22 1.21 1.18 1.15 1.12 1.11 1.08 1.02 0.97 0.92 0.88 0.85 0.81 0.80 0.81 0.82 0.81 0.79 0.75 0.72 0.70 0.70 0.67 0.63 0.62 0.59 0.56 0.53 0.52 0.53 0.54 0.51 0.52 0.57 0.63 0.64 0.58 0.51 0.47 0.46 0.45 0.48 0.45 0.45 0.52 0.49 0.49 0.53 0.55 0.49 0.44 0.44 0.44 0.46 0.47
1.04 1.10 1.14 1.13 1.13 1.17 1.19 1.23 1.24 1.22 1.20 1.19 1.17 1.16 1.16 1.16 1.16 1.15 1.14 1.14 1.14 1.14 1.14 1.14 1.14 1.18 1.21 1.22 1.21 1.22 1.20 1.20 1.16 1.14 1.10 1.09 1.06 1.00 0.95 0.91 0.88 0.84 0.81 0.81 0.83 0.83 0.81 0.79 0.76 0.74 0.73 0.70 0.65 0.62 0.61 0.59 0.55 0.53 0.57 0.58 0.56 0.56 0.62 0.67 0.64 0.55 0.52 0.49 0.46 0.46 0.46 0.45 0.44 0.47 0.48 0.49 0.49 0.51 0.56 0.50 0.45 0.46 0.45 0.43 0.45
1.02 1.06 1.09 1.10 1.13 1.17 1.21 1.23 1.21 1.19 1.16 1.14 1.15 1.17 1.17 1.16 1.15 1.14 1.13 1.15 1.15 1.14 1.13 1.15 1.15 1.16 1.15 1.18 1.18 1.19 1.20 1.20 1.16 1.14 1.11 1.09 1.06 0.99 0.96 0.92 0.89 0.85 0.81 0.80 0.81 0.81 0.80 0.80 0.78 0.74 0.69 0.65 0.61 0.58 0.57 0.54 0.58 0.64 0.66 0.62 0.61 0.60 0.62 0.59 0.54 0.51 0.49 0.46 0.45 0.46 0.44 0.44 0.46 0.49 0.48 0.51 0.54 0.52 0.48 0.50 0.46 0.44 0.42 0.42 0.41
1.03 1.04 1.05 1.10 1.14 1.19 1.22 1.21 1.20 1.15 1.13 1.14 1.16 1.17 1.17 1.16 1.15 1.14 1.14 1.15 1.14 1.13 1.12 1.12 1.14 1.15 1.14 1.14 1.14 1.16 1.19 1.18 1.15 1.13 1.11 1.09 1.05 0.99 0.95 0.91 0.90 0.87 0.83 0.82 0.80 0.81 0.81 0.80 0.78 0.71 0.66 0.62 0.59 0.58 0.56 0.57 0.58 0.60 0.63 0.60 0.63 0.67 0.62 0.57 0.51 0.50 0.45 0.43 0.45 0.45 0.43 0.45 0.49 0.51 0.49 0.51 0.55 0.51 0.49 0.47 0.43 0.41 0.38 0.36 0.35
0.98 1.00 1.04 1.09 1.14 1.16 1.18 1.17 1.14 1.12 1.12 1.12 1.14 1.18 1.19 1.17 1.14 1.14 1.14 1.13 1.13 1.12 1.10 1.12 1.14 1.13 1.13 1.13 1.13 1.15 1.17 1.17 1.16 1.12 1.09 1.07 1.02 0.99 0.95 0.91 0.89 0.88 0.86 0.84 0.83 0.81 0.80 0.78 0.76 0.71 0.65 0.62 0.62 0.59 0.59 0.60 0.60 0.60 0.60 0.60 0.60 0.57 0.55 0.56 0.53 0.48 0.45 0.42 0.43 0.45 0.46 0.48 0.52 0.53 0.51 0.50 0.50 0.52 0.52 0.48 0.45 0.43 0.41 0.39 0.39
0.94 0.96 0.99 1.05 1.12 1.13 1.11 1.11 1.11 1.10 1.10 1.12 1.15 1.18 1.19 1.17 1.14 1.13 1.12 1.14 1.14 1.10 1.10 1.12 1.12 1.12 1.12 1.09 1.10 1.14 1.17 1.17 1.15 1.11 1.08 1.04 1.00 0.98 0.94 0.92 0.89 0.89 0.88 0.85 0.83 0.82 0.80 0.77 0.74 0.71 0.67 0.65 0.65 0.65 0.65 0.64 0.63 0.63 0.63 0.61 0.59 0.56 0.52 0.47 0.47 0.49 0.52 0.44 0.43 0.44 0.48 0.52 0.52 0.55 0.55 0.51 0.52 0.46 0.45 0.45 0.47 0.47 0.45 0.42 0.43
0.91 0.92 0.97 1.03 1.07 1.06 1.04 1.02 1.03 1.07 1.11 1.14 1.15 1.17 1.17 1.15 1.16 1.17 1.18 1.17 1.14 1.12 1.11 1.11 1.11 1.10 1.10 1.09 1.10 1.14 1.16 1.17 1.15 1.11 1.07 1.01 0.98 0.96 0.94 0.92 0.90 0.88 0.88 0.86 0.85 0.84 0.81 0.76 0.73 0.71 0.72 0.67 0.70 0.71 0.68 0.68 0.66 0.64 0.62 0.61 0.60 0.56 0.50 0.45 0.42 0.40 0.41 0.46 0.45 0.45 0.55 0.56 0.52 0.54 0.56 0.53 0.48 0.45 0.44 0.44 0.46 0.45 0.45 0.42 0.41
0.90 0.92 0.96 1.01 1.02 1.01 0.99 0.96 0.97 1.02 1.08 1.12 1.13 1.15 1.17 1.19 1.20 1.19 1.18 1.16 1.14 1.11 1.10 1.09 1.09 1.09 1.10 1.09 1.09 1.11 1.15 1.18 1.15 1.11 1.06 1.00 0.98 0.93 0.95 0.93 0.90 0.89 0.88 0.88 0.87 0.85 0.81 0.77 0.75 0.73 0.75 0.72 0.73 0.73 0.71 0.72 0.71 0.66 0.64 0.62 0.59 0.59 0.52 0.45 0.42 0.41 0.39 0.39 0.46 0.56 0.64 0.63 0.54 0.52 0.57 0.57 0.52 0.49 0.48 0.47 0.46 0.44 0.43 0.44 0.47
0.88 0.92 0.95 0.97 0.97 0.98 0.95 0.93 0.97 1.01 1.05 1.09 1.11 1.13 1.17 1.20 1.19 1.20 1.20 1.21 1.22 1.19 1.15 1.13 1.09 1.08 1.10 1.09 1.08 1.09 1.15 1.17 1.15 1.11 1.05 1.01 0.97 0.92 0.96 0.92 0.88 0.88 0.88 0.89 0.87 0.85 0.83 0.79 0.78 0.78 0.79 0.75 0.75 0.72 0.74 0.75 0.72 0.68 0.63 0.61 0.58 0.57 0.52 0.47 0.45 0.44 0.45 0.48 0.53 0.64 0.69 0.66 0.57 0.56 0.58 0.58 0.55 0.54 0.52 0.51 0.50 0.48 0.46 0.45 0.43
0.88 0.93 0.93 0.94 0.96 0.98 0.97 0.97 0.98 1.00 1.03 1.05 1.07 1.12 1.17 1.21 1.23 1.25 1.21 1.20 1.18 1.15 1.11 1.11 1.10 1.08 1.09 1.09 1.08 1.09 1.12 1.16 1.15 1.11 1.05 1.01 0.96 0.91 0.94 0.90 0.89 0.89 0.88 0.89 0.87 0.86 0.84 0.82 0.83 0.80 0.76 0.79 0.79 0.75 0.73 0.72 0.70 0.66 0.62 0.59 0.56 0.50 0.48 0.47 0.43 0.43 0.45 0.49 0.55 0.59 0.59 0.57 0.55 0.53 0.51 0.51 0.48 0.48 0.47 0.45 0.44 0.47 0.46 0.43 0.40
0.89 0.92 0.90 0.93 0.97 1.00 1.00 0.99 0.96 0.96 1.00 1.03 1.07 1.13 1.21 1.25 1.25 1.25 1.21 1.20 1.18 1.16 1.14 1.13 1.12 1.12 1.10 1.10 1.10 1.07 1.10 1.15 1.14 1.09 1.05 1.02 0.97 0.93 0.94 0.88 0.89 0.89 0.89 0.89 0.86 0.86 0.84 0.84 0.84 0.81 0.80 0.83 0.78 0.75 0.70 0.68 0.68 0.66 0.62 0.58 0.52 0.47 0.44 0.46 0.46 0.44 0.47 0.52 0.58 0.60 0.58 0.56 0.55 0.55 0.54 0.52 0.48 0.45 0.43 0.40 0.44 0.44 0.41 0.40 0.37
0.90 0.90 0.91 0.94 0.95 0.97 0.98 0.97 0.95 0.94 0.98 1.03 1.08 1.13 1.20 1.22 1.25 1.26 1.27 1.27 1.24 1.22 1.18 1.14 1.11 1.11 1.12 1.12 1.11 1.08 1.10 1.13 1.11 1.09 1.06 1.02 0.98 0.96 0.94 0.88 0.88 0.88 0.87 0.86 0.86 0.85 0.88 0.84 0.82 0.83 0.85 0.86 0.76 0.73 0.71 0.69 0.67 0.66 0.63 0.57 0.50 0.45 0.43 0.46 0.48 0.48 0.51 0.54 0.57 0.58 0.55 0.53 0.55 0.57 0.58 0.54 0.50 0.46 0.45 0.43 0.43 0.42 0.41 0.41 0.39
0.89 0.91 0.91 0.93 0.94 0.98 0.98 0.95 0.94 0.94 0.98 1.05 1.12 1.16 1.22 1.24 1.24 1.26 1.28 1.27 1.23 1.21 1.21 1.17 1.11 1.09 1.12 1.12 1.09 1.09 1.10 1.09 1.09 1.08 1.07 1.04 1.00 0.99 0.95 0.88 0.87 0.87 0.87 0.84 0.83 0.86 0.90 0.85 0.81 0.83 0.86 0.82 0.76 0.74 0.71 0.68 0.69 0.70 0.65 0.55 0.48 0.44 0.48 0.49 0.50 0.50 0.53 0.56 0.61 0.67 0.64 0.60 0.58 0.56 0.55 0.54 0.50 0.48 0.45 0.43 0.43 0.43 0.41 0.40 0.39
0.93 0.93 0.96 0.95 0.95 0.97 0.96 0.97 0.94 0.98 1.02 1.06 1.12 1.15 1.20 1.22 1.26 1.28 1.26 1.27 1.25 1.22 1.21 1.17 1.11 1.09 1.11 1.11 1.09 1.10 1.10 1.09 1.07 1.08 1.09 1.06 1.02 0.99 0.95 0.92 0.92 0.90 0.86 0.86 0.87 0.88 0.89 0.86 0.83 0.81 0.80 0.79 0.78 0.75 0.70 0.69 0.70 0.68 0.63 0.53 0.50 0.51 0.56 0.50 0.51 0.49 0.51 0.54 0.59 0.60 0.58 0.52 0.52 0.53 0.54 0.54 0.53 0.50 0.44 0.41 0.43 0.44 0.42 0.39 0.38
0.95 0.97 0.96 0.95 0.96 0.96 0.97 0.99 1.00 1.02 1.05 1.06 1.08 1.12 1.20 1.26 1.28 1.29 1.29 1.27 1.24 1.22 1.21 1.16 1.09 1.08 1.10 1.09 1.07 1.08 1.11 1.10 1.07 1.08 1.10 1.07 1.03 1.01 0.99 0.97 0.96 0.93 0.90 0.90 0.89 0.89 0.88 0.86 0.84 0.80 0.79 0.79 0.79 0.75 0.71 0.70 0.68 0.65 0.62 0.56 0.54 0.52 0.48 0.52 0.53 0.50 0.47 0.50 0.54 0.54 0.51 0.47 0.48 0.51 0.54 0.53 0.49 0.48 0.49 0.47 0.45 0.43 0.43 0.43 0.41
0.97 0.97 0.98 0.97 0.96 0.98 1.00 1.01 1.02 1.04 1.05 1.07 1.09 1.12 1.21 1.25 1.28 1.30 1.25 1.23 1.21 1.20 1.18 1.13 1.08 1.07 1.07 1.06 1.05 1.07 1.08 1.07 1.07 1.08 1.09 1.08 1.04 1.01 1.02 1.00 0.98 0.98 0.93 0.91 0.90 0.90 0.89 0.85 0.85 0.82 0.81 0.79 0.76 0.73 0.72 0.71 0.69 0.65 0.61 0.58 0.53 0.48 0.46 0.47 0.48 0.51 0.53 0.55 0.55 0.55 0.52 0.48 0.46 0.48 0.50 0.51 0.47 0.44 0.43 0.45 0.44 0.44 0.45 0.45 0.45
1.05 1.04 1.02 0.99 1.00 1.02 1.04 1.05 1.06 1.07 1.09 1.12 1.14 1.17 1.21 1.24 1.25 1.26 1.25 1.20 1.17 1.16 1.15 1.10 1.06 1.05 1.03 0.99 1.01 1.03 1.06 1.06 1.06 1.09 1.09 1.07 1.05 1.03 1.02 1.03 1.00 0.99 0.98 0.95 0.93 0.92 0.89 0.88 0.87 0.82 0.79 0.74 0.72 0.73 0.72 0.70 0.69 0.66 0.63 0.59 0.53 0.48 0.47 0.47 0.48 0.49 0.51 0.54 0.56 0.57 0.55 0.52 0.48 0.47 0.47 0.45 0.40 0.37 0.40 0.44 0.44 0.45 0.45 0.46 0.47
1.07 1.03 1.02 1.02 1.01 1.02 1.04 1.06 1.08 1.11 1.14 1.16 1.15 1.18 1.20 1.21 1.19 1.22 1.20 1.15 1.12 1.11 1.11 1.06 1.03 1.01 0.99 0.97 0.98 0.98 1.02 1.04 1.06 1.09 1.11 1.10 1.08 1.05 1.03 1.04 1.01 1.00 0.99 0.99 0.97 0.96 0.94 0.90 0.83 0.79 0.75 0.74 0.74 0.73 0.72 0.71 0.72 0.70 0.66 0.62 0.57 0.53 0.51 0.51 0.50 0.52 0.53 0.55 0.56 0.57 0.56 0.54 0.53 0.52 0.51 0.46 0.42 0.39 0.37 0.40 0.40 0.40 0.42 0.45 0.47
1.06 1.04 1.02 1.02 1.03 1.05 1.04 1.06 1.10 1.13 1.14 1.16 1.17 1.18 1.16 1.14 1.13 1.15 1.14 1.09 1.06 1.06 1.05 1.00 1.00 0.98 0.98 0.99 0.97 0.97 1.00 1.01 1.04 1.08 1.10 1.08 1.05 1.03 1.03 1.04 1.02 1.02 1.01 1.03 1.01 0.96 0.87 0.83 0.80 0.78 0.78 0.78 0.78 0.77 0.76 0.75 0.73 0.71 0.68 0.65 0.61 0.57 0.55 0.55 0.55 0.56 0.56 0.57 0.57 0.55 0.55 0.55 0.54 0.54 0.53 0.48 0.42 0.36 0.34 0.32 0.34 0.38 0.43 0.44 0.45
1.07 1.08 1.07 1.07 1.11 1.13 1.10 1.06 1.05 1.08 1.12 1.13 1.13 1.14 1.14 1.10 1.11 1.11 1.10 1.05 1.02 1.01 0.98 0.94 0.94 0.95 0.96 0.98 0.99 0.99 0.98 0.98 1.02 1.06 1.07 1.05 1.03 1.04 1.04 1.03 1.02 1.02 1.00 1.02 0.97 0.90 0.82 0.80 0.81 0.81 0.81 0.81 0.81 0.81 0.79 0.78 0.76 0.73 0.71 0.68 0.65 0.61 0.59 0.58 0.58 0.59 0.59 0.58 0.58 0.57 0.57 0.57 0.57 0.54 0.49 0.45 0.39 0.36 0.34 0.33 0.33 0.35 0.37 0.40 0.41
1.09 1.08 1.07 1.07 1.08 1.10 1.11 1.13 1.13 1.14 1.16 1.17 1.17 1.19 1.18 1.15 1.11 1.12 1.08 1.01 0.98 0.95 0.93 0.89 0.91 0.93 0.95 0.97 0.97 0.97 0.96 0.97 1.01 1.04 1.06 1.05 1.04 1.08 1.06 1.06 1.05 1.03 0.99 0.98 0.95 0.88 0.84 0.84 0.83 0.84 0.84 0.82 0.82 0.82 0.81 0.81 0.79 0.75 0.72 0.69 0.66 0.65 0.63 0.63 0.63 0.64 0.64 0.63 0.61 0.60 0.60 0.59 0.55 0.50 0.46 0.43 0.41 0.40 0.39 0.36 0.34 0.33 0.34 0.36 0.36
1.12 1.13 1.14 1.15 1.12 1.13 1.14 1.15 1.14 1.13 1.13 1.17 1.20 1.19 1.15 1.17 1.21 1.22 1.22 1.17 1.11 1.02 0.96 0.95 0.98 1.02 1.01 0.99 0.96 0.94 0.95 0.96 1.04 1.15 1.15 1.13 1.11 1.08 1.03 1.03 1.04 1.00 0.98 0.97 0.92 0.88 0.85 0.83 0.83 0.83 0.83 0.82 0.82 0.82 0.82 0.81 0.79 0.77 0.74 0.71 0.69 0.68 0.67 0.66 0.62 0.61 0.62 0.62 0.60 0.59 0.58 0.58 0.55 0.54 0.51 0.47 0.45 0.42 0.40 0.38 0.38 0.36 0.34 0.35 0.36
1.15 1.15 1.15 1.13 1.13 1.13 1.14 1.16 1.19 1.15 1.11 1.13 1.16 1.19 1.25 1.28 1.28 1.23 1.20 1.22 1.22 1.19 1.14 1.06 1.05 1.05 1.05 1.08 1.07 1.02 1.01 1.10 1.20 1.21 1.18 1.14 1.13 1.12 1.11 1.09 1.06 1.03 0.99 0.96 0.89 0.85 0.84 0.83 0.83 0.83 0.83 0.83 0.80 0.80 0.80 0.81 0.79 0.76 0.74 0.73 0.72 0.71 0.71 0.70 0.67 0.65 0.64 0.63 0.62 0.60 0.59 0.57 0.55 0.55 0.54 0.52 0.48 0.43 0.41 0.40 0.40 0.39 0.36 0.35 0.36
1.15 1.16 1.16 1.14 1.17 1.17 1.16 1.15 1.17 1.17 1.16 1.14 1.13 1.11 1.13 1.19 1.27 1.31 1.30 1.27 1.23 1.21 1.20 1.20 1.21 1.23 1.22 1.14 1.14 1.14 1.18 1.20 1.20 1.19 1.16 1.14 1.14 1.14 1.11 1.08 1.05 1.03 0.99 0.91 0.85 0.83 0.83 0.82 0.83 0.84 0.83 0.83 0.81 0.80 0.81 0.80 0.77 0.74 0.73 0.73 0.73 0.72 0.71 0.70 0.69 0.67 0.65 0.64 0.63 0.60 0.58 0.58 0.56 0.55 0.53 0.52 0.47 0.45 0.42 0.42 0.41 0.37 0.36 0.37 0.37
1.12 1.13 1.14 1.17 1.18 1.20 1.21 1.19 1.18 1.18 1.18 1.16 1.10 1.08 1.09 1.11 1.16 1.23 1.23 1.23 1.26 1.26 1.22 1.22 1.23 1.22 1.18 1.15 1.13 1.14 1.20 1.21 1.19 1.17 1.17 1.18 1.16 1.14 1.10 1.08 1.06 1.02 1.00 0.96 0.87 0.86 0.86 0.84 0.83 0.83 0.83 0.81 0.80 0.80 0.80 0.78 0.76 0.74 0.72 0.70 0.69 0.69 0.69 0.69 0.70 0.67 0.65 0.65 0.63 0.58 0.55 0.55 0.55 0.55 0.55 0.53 0.49 0.46 0.43 0.39 0.41 0.42 0.39 0.38 0.38
1.16 1.17 1.17 1.19 1.20 1.22 1.21 1.18 1.18 1.19 1.19 1.19 1.14 1.08 1.08 1.11 1.08 1.06 1.14 1.21 1.22 1.23 1.24 1.24 1.21 1.18 1.19 1.19 1.20 1.19 1.20 1.21 1.19 1.19 1.18 1.17 1.15 1.12 1.10 1.09 1.07 1.04 1.00 0.94 0.89 0.86 0.86 0.84 0.83 0.83 0.83 0.81 0.81 0.80 0.79 0.78 0.76 0.73 0.71 0.69 0.67 0.66 0.66 0.67 0.69 0.67 0.64 0.62 0.62 0.57 0.54 0.53 0.53 0.52 0.53 0.54 0.50 0.45 0.42 0.39 0.40 0.41 0.41 0.39 0.37
1.21 1.20 1.19 1.19 1.20 1.22 1.22 1.21 1.19 1.18 1.19 1.18 1.15 1.10 1.10 1.12 1.09 1.06 1.01 1.02 1.09 1.14 1.18 1.21 1.20 1.21 1.22 1.23 1.22 1.22 1.22 1.21 1.20 1.19 1.17 1.14 1.11 1.10 1.08 1.07 1.06 1.04 0.98 0.91 0.87 0.83 0.83 0.83 0.83 0.84 0.84 0.83 0.81 0.79 0.78 0.77 0.75 0.73 0.71 0.69 0.66 0.65 0.65 0.66 0.65 0.64 0.59 0.58 0.56 0.54 0.52 0.52 0.51 0.49 0.48 0.49 0.47 0.45 0.43 0.42 0.43 0.41 0.38 0.37 0.36
1.22 1.23 1.22 1.22 1.22 1.23 1.23 1.22 1.20 1.20 1.19 1.16 1.16 1.15 1.12 1.12 1.11 1.07 1.04 1.01 1.01 1.03 1.05 1.10 1.15 1.18 1.17 1.19 1.21 1.23 1.21 1.19 1.17 1.15 1.11 1.09 1.08 1.07 1.06 1.01 0.96 0.94 0.91 0.87 0.83 0.82 0.83 0.84 0.84 0.84 0.84 0.82 0.80 0.79 0.76 0.75 0.72 0.70 0.69 0.67 0.65 0.63 0.62 0.63 0.62 0.61 0.55 0.53 0.53 0.52 0.51 0.50 0.50 0.48 0.46 0.44 0.43 0.44 0.44 0.44 0.43 0.42 0.39 0.38 0.37
1.20 1.21 1.23 1.24 1.23 1.24 1.24 1.25 1.23 1.21 1.18 1.16 1.16 1.17 1.17 1.15 1.11 1.11 1.13 1.18 1.14 1.09 1.07 1.09 1.10 1.11 1.15 1.17 1.20 1.21 1.21 1.20 1.16 1.10 1.06 1.05 1.03 1.02 0.95 0.91 0.87 0.84 0.82 0.84 0.86 0.88 0.87 0.85 0.85 0.85 0.84 0.81 0.79 0.76 0.74 0.72 0.71 0.69 0.67 0.65 0.62 0.61 0.60 0.58 0.56 0.53 0.52 0.52 0.50 0.49 0.48 0.47 0.47 0.46 0.45 0.44 0.45 0.45 0.44 0.43 0.42 0.41 0.39 0.37 0.37
1.20 1.20 1.21 1.22 1.23 1.24 1.26 1.28 1.27 1.25 1.22 1.21 1.20 1.19 1.21 1.20 1.19 1.16 1.19 1.17 1.17 1.18 1.15 1.12 1.10 1.09 1.11 1.13 1.16 1.19 1.20 1.17 1.10 1.05 1.01 0.99 0.98 0.96 0.91 0.88 0.85 0.87 0.87 0.87 0.87 0.87 0.85 0.85 0.85 0.83 0.80 0.77 0.76 0.74 0.72 0.70 0.68 0.67 0.66 0.63 0.61 0.58 0.54 0.52 0.52 0.51 0.49 0.47 0.47 0.46 0.45 0.44 0.43 0.44 0.43 0.42 0.41 0.42 0.42 0.42 0.42 0.40 0.38 0.35 0.34
1.20 1.21 1.23 1.27 1.25 1.22 1.22 1.23 1.23 1.24 1.20 1.20 1.23 1.24 1.23 1.21 1.21 1.23 1.21 1.19 1.18 1.16 1.15 1.11 1.07 1.03 1.03 1.09 1.15 1.15 1.11 1.06 1.02 0.99 0.97 0.95 0.92 0.91 0.91 0.91 0.90 0.87 0.86 0.87 0.88 0.87 0.84 0.83 0.81 0.78 0.76 0.75 0.73 0.70 0.67 0.66 0.66 0.64 0.63 0.61 0.56 0.54 0.52 0.50 0.49 0.49 0.47 0.45 0.44 0.43 0.41 0.40 0.40 0.41 0.41 0.40 0.40 0.40 0.41 0.42 0.41 0.39 0.36 0.34 0.33
1.16 1.18 1.22 1.27 1.28 1.27 1.26 1.22 1.19 1.18 1.19 1.18 1.18 1.19 1.18 1.20 1.23 1.23 1.22 1.23 1.21 1.20 1.17 1.09 1.05 1.04 1.07 1.11 1.11 1.08 1.03 0.98 0.95 0.93 0.92 0.91 0.93 0.94 0.94 0.92 0.89 0.88 0.89 0.90 0.88 0.85 0.81 0.77 0.75 0.74 0.72 0.69 0.67 0.67 0.67 0.66 0.65 0.63 0.60 0.56 0.53 0.50 0.48 0.45 0.44 0.45 0.44 0.43 0.43 0.43 0.42 0.41 0.40 0.39 0.39 0.40 0.40 0.40 0.40 0.41 0.39 0.36 0.33 0.32 0.34
1.12 1.14 1.15 1.17 1.18 1.16 1.16 1.17 1.22 1.23 1.24 1.22 1.21 1.23 1.24 1.25 1.25 1.23 1.23 1.23 1.19 1.17 1.12 1.10 1.09 1.11 1.11 1.12 1.05 1.03 0.98 0.97 0.96 0.93 0.92 0.92 0.92 0.93 0.93 0.90 0.90 0.90 0.89 0.87 0.84 0.80 0.76 0.72 0.70 0.68 0.67 0.67 0.67 0.67 0.66 0.64 0.62 0.59 0.57 0.54 0.52 0.49 0.46 0.43 0.41 0.40 0.39 0.39 0.39 0.40 0.40 0.40 0.39 0.39 0.40 0.40 0.40 0.40 0.39 0.38 0.36 0.35 0.34 0.31 0.34
1.12 1.13 1.13 1.14 1.13 1.13 1.14 1.14 1.17 1.18 1.20 1.23 1.23 1.22 1.22 1.22 1.23 1.23 1.21 1.17 1.15 1.14 1.14 1.15 1.14 1.14 1.12 1.09 1.10 1.09 1.04 0.99 0.97 0.95 0.95 0.94 0.94 0.93 0.92 0.92 0.93 0.92 0.90 0.85 0.81 0.76 0.72 0.68 0.68 0.68 0.68 0.66 0.66 0.66 0.65 0.62 0.58 0.55 0.54 0.53 0.51 0.46 0.44 0.41 0.39 0.38 0.38 0.39 0.39 0.40 0.41 0.41 0.40 0.39 0.38 0.39 0.39 0.38 0.38 0.36 0.34 0.33 0.32 0.32 0.33
1.10 1.10 1.10 1.11 1.12 1.13 1.12 1.12 1.14 1.20 1.23 1.24 1.25 1.22 1.22 1.22 1.21 1.21 1.19 1.16 1.14 1.13 1.12 1.12 1.13 1.16 1.14 1.13 1.12 1.10 1.06 1.02 1.00 0.97 0.96 0.95 0.94 0.94 0.94 0.93 0.94 0.91 0.86 0.81 0.76 0.71 0.68 0.68 0.69 0.69 0.67 0.66 0.66 0.65 0.62 0.58 0.55 0.52 0.51 0.50 0.49 0.45 0.42 0.41 0.41 0.39 0.38 0.38 0.39 0.39 0.39 0.40 0.40 0.38 0.38 0.37 0.37 0.36 0.34 0.33 0.32 0.31 0.31 0.33 0.35
1.09 1.12 1.14 1.13 1.14 1.15 1.16 1.15 1.18 1.20 1.19 1.20 1.20 1.21 1.22 1.20 1.18 1.16 1.15 1.15 1.15 1.14 1.13 1.12 1.12 1.13 1.13 1.10 1.09 1.05 1.02 0.99 0.97 0.96 0.95 0.94 0.94 0.93 0.93 0.92 0.91 0.88 0.83 0.78 0.74 0.71 0.70 0.71 0.71 0.68 0.65 0.63 0.63 0.61 0.58 0.56 0.54 0.52 0.51 0.50 0.49 0.48 0.45 0.42 0.41 0.41 0.39 0.37 0.36 0.37 0.36 0.35 0.35 0.34 0.34 0.34 0.32 0.32 0.31 0.31 0.29 0.29 0.31 0.34 0.36
1.13 1.13 1.15 1.17 1.19 1.21 1.25 1.25 1.22 1.22 1.21 1.22 1.21 1.20 1.19 1.17 1.15 1.10 1.09 1.12 1.12 1.12 1.11 1.10 1.08 1.05 1.02 1.01 1.00 1.00 0.98 0.98 0.98 0.97 0.95 0.94 0.92 0.92 0.91 0.89 0.85 0.82 0.77 0.75 0.75 0.74 0.72 0.69 0.66 0.64 0.63 0.62 0.62 0.62 0.60 0.57 0.54 0.52 0.51 0.51 0.50 0.49 0.47 0.44 0.41 0.40 0.40 0.38 0.36 0.35 0.34 0.32 0.32 0.32 0.31 0.31 0.30 0.29 0.28 0.28 0.29 0.30 0.31 0.34 0.36
1.16 1.15 1.14 1.17 1.18 1.18 1.17 1.20 1.17 1.17 1.18 1.17 1.17 1.17 1.16 1.13 1.11 1.11 1.11 1.06 1.06 1.04 1.04 1.02 1.01 1.01 1.00 0.99 0.99 0.98 0.98 0.98 0.97 0.95 0.93 0.92 0.90 0.87 0.85 0.82 0.79 0.77 0.76 0.74 0.74 0.72 0.70 0.67 0.65 0.62 0.60 0.61 0.61 0.61 0.61 0.58 0.56 0.54 0.53 0.52 0.50 0.49 0.48 0.46 0.44 0.41 0.40 0.37 0.35 0.34 0.33 0.32 0.31 0.29 0.29 0.30 0.29 0.29 0.28 0.29 0.29 0.30 0.31 0.33 0.34
1.17 1.16 1.16 1.19 1.18 1.17 1.16 1.17 1.19 1.18 1.15 1.14 1.12 1.11 1.11 1.07 1.09 1.06 1.03 1.01 0.99 0.99 1.01 1.02 1.02 1.02 1.01 0.99 0.98 0.97 0.95 0.93 0.91 0.89 0.87 0.85 0.82 0.79 0.78 0.76 0.76 0.76 0.75 0.73 0.71 0.70 0.68 0.65 0.61 0.58 0.57 0.58 0.59 0.60 0.59 0.59 0.58 0.57 0.56 0.54 0.52 0.51 0.50 0.48 0.45 0.41 0.38 0.36 0.32 0.32 0.31 0.31 0.32 0.33 0.32 0.32 0.33 0.32 0.30 0.30 0.31 0.30 0.31 0.31 0.32
1.17 1.17 1.17 1.17 1.15 1.14 1.14 1.14 1.14 1.12 1.10 1.09 1.08 1.06 1.05 1.06 1.06 1.06 1.05 1.03 1.05 1.05 1.03 1.02 1.00 0.97 0.96 0.95 0.92 0.89 0.86 0.83 0.82 0.80 0.79 0.78 0.76 0.75 0.75 0.74 0.73 0.72 0.70 0.70 0.68 0.66 0.62 0.60 0.59 0.59 0.59 0.58 0.58 0.58 0.58 0.57 0.57 0.56 0.55 0.54 0.53 0.52 0.50 0.48 0.45 0.42 0.39 0.37 0.33 0.30 0.32 0.35 0.36 0.35 0.34 0.34 0.34 0.34 0.33 0.32 0.32 0.32 0.34 0.34 0.35
1.17 1.16 1.16 1.14 1.13 1.12 1.12 1.13 1.11 1.11 1.06 1.11 1.06 1.04 1.06 1.06 1.04 1.02 1.01 0.99 0.97 0.95 0.94 0.93 0.91 0.90 0.88 0.86 0.83 0.82 0.81 0.80 0.79 0.77 0.75 0.73 0.73 0.72 0.72 0.71 0.69 0.68 0.66 0.64 0.62 0.61 0.60 0.60 0.59 0.58 0.57 0.57 0.57 0.58 0.58 0.56 0.55 0.54 0.53 0.52 0.51 0.50 0.48 0.45 0.44 0.43 0.41 0.39 0.37 0.34 0.34 0.35 0.36 0.37 0.37 0.36 0.34 0.35 0.34 0.33 0.34 0.36 0.37 0.37 0.38
1.12 1.09 1.11 1.12 1.06 1.05 1.04 1.06 1.05 1.04 1.01 0.99 1.00 0.97 0.99 0.97 0.96 0.95 0.94 0.92 0.90 0.88 0.86 0.84 0.83 0.82 0.80 0.79 0.79 0.78 0.76 0.75 0.73 0.72 0.70 0.69 0.69 0.69 0.68 0.67 0.65 0.62 0.60 0.59 0.59 0.59 0.58 0.58 0.58 0.58 0.58 0.58 0.58 0.57 0.56 0.55 0.54 0.52 0.51 0.48 0.46 0.43 0.42 0.41 0.43 0.44 0.43 0.42 0.41 0.39 0.38 0.38 0.38 0.37 0.37 0.37 0.37 0.37 0.37 0.38 0.38 0.39 0.40 0.41 0.41
1.07 1.06 1.04 1.03 1.01 1.00 1.01 1.00 1.00 0.98 0.97 0.97 0.95 0.94 0.94 0.93 0.91 0.89 0.87 0.85 0.83 0.82 0.81 0.80 0.79 0.78 0.77 0.75 0.74 0.73 0.72 0.71 0.71 0.70 0.68 0.67 0.67 0.66 0.65 0.63 0.62 0.61 0.59 0.58 0.57 0.57 0.58 0.58 0.59 0.59 0.59 0.58 0.58 0.57 0.56 0.54 0.52 0.49 0.46 0.45 0.44 0.42 0.42 0.42 0.42 0.43 0.42 0.42 0.41 0.41 0.41 0.40 0.40 0.38 0.38 0.38 0.38 0.38 0.38 0.38 0.39 0.40 0.41 0.42 0.42
1.05 1.02 0.99 0.97 0.96 0.96 0.96 0.94 0.93 0.93 0.92 0.91 0.88 0.86 0.84 0.83 0.82 0.81 0.81 0.80 0.79 0.79 0.79 0.79 0.78 0.77 0.76 0.76 0.75 0.74 0.73 0.71 0.70 0.69 0.67 0.65 0.64 0.63 0.62 0.61 0.60 0.59 0.59 0.58 0.57 0.56 0.57 0.57 0.58 0.59 0.59 0.58 0.57 0.56 0.55 0.54 0.50 0.47 0.47 0.46 0.46 0.46 0.46 0.45 0.43 0.41 0.40 0.40 0.41 0.41 0.41 0.41 0.39 0.38 0.38 0.38 0.40 0.40 0.40 0.41 0.41 0.42 0.42 0.41 0.41
Wind_Speed
44 44 43 40 39 38 36 34 33 30 28 27 25 24 24 23 23 23 23 22 23 22 22 21 20 20 19 19 18 18 18 17 17 16 16 16 16 15 15 15 15 16 16 16 16 16 16 16 16 16 16 16 16 16 17 17 18 18 19 19 19 20 21 22 22 22 22 22 23 24 25 25 25 26 26 26 27 28 28 29 29 30 30 29 29
44 43 43 42 40 38 36 35 33 31 28 27 26 25 24 24 24 23 23 23 23 23 22 21 21 20 20 19 19 18 18 17 17 16 16 16 15 15 15 15 15 15 16 16 16 16 16 16 16 16 16 16 16 16 17 17 17 17 18 19 19 20 21 21 22 23 22 23 24 25 25 25 25 26 26 26 27 28 28 28 29 29 29 29 29
44 43 43 42 41 39 37 35 33 31 29 28 27 25 25 25 24 24 23 23 24 23 22 21 21 20 20 19 19 19 18 18 17 17 16 16 16 15 15 15 15 15 16 16 16 16 15 15 15 15 15 16 16 16 16 17 17 17 18 19 19 20 21 21 22 23 23 23 25 25 25 25 26 25 26 27 27 28 28 28 28 28 28 28 28
44 44 43 43 42 40 38 36 34 33 31 29 28 26 25 25 25 24 24 24 24 23 22 21 21 20 20 20 19 19 18 18 17 17 16 16 16 15 15 15 15 15 15 15 15 15 15 15 15 15 15 16 16 16 16 17 17 17 18 18 19 20 21 21 22 23 23 23 25 25 24 25 25 25 26 27 27 27 28 28 28 28 28 28 27
45 45 44 43 42 41 39 37 35 34 32 30 29 27 26 26 26 25 24 24 24 24 22 21 21 21 20 20 20 19 19 18 17 17 17 16 16 15 15 15 15 15 15 15 15 15 15 15 15 15 15 16 16 16 16 17 17 17 18 18 19 20 20 21 22 23 23 24 24 24 23 24 24 25 25 26 26 27 27 27 27 27 27 27 26
46 45 44 44 43 42 40 38 37 35 33 31 30 28 27 27 27 26 25 25 25 24 23 22 21 21 21 21 20 19 19 18 18 17 17 16 16 15 15 15 15 15 15 15 15 15 14 14 14 15 15 15 16 16 16 17 17 17 18 18 19 20 20 21 22 23 23 23 23 23 23 24 24 25 25 25 26 27 27 27 27 26 26 26 26
47 46 45 44 43 42 40 38 37 36 34 32 30 29 28 28 27 27 26 25 25 24 23 22 22 22 22 21 21 20 19 18 18 17 17 16 16 15 15 15 15 15 15 15 15 15 14 14 15 15 15 16 16 16 16 17 17 17 18 19 19 20 20 21 22 23 23 23 23 23 23 24 24 24 25 25 26 26 26 26 26 26 26 26 26
47 46 45 44 44 42 40 38 37 37 35 32 31 29 28 28 28 27 26 26 25 25 24 23 22 22 22 21 21 20 19 18 18 17 17 16 16 16 16 15 15 15 15 15 15 15 15 15 15 16 16 16 16 16 16 17 17 18 18 19 20 20 21 22 22 23 23 23 23 23 23 24 24 24 25 26 26 25 24 25 26 26 26 26 25
47 46 45 44 44 42 40 39 38 37 35 33 32 30 29 29 28 27 27 26 25 25 25 24 23 23 22 22 21 20 19 19 18 18 17 17 16 16 16 15 15 15 15 16 16 16 16 16 16 16 16 16 16 16 17 17 17 18 19 19 20 21 22 22 22 23 23 23 23 23 23 24 24 24 25 25 24 24 24 25 25 25 25 26 25
47 46 45 44 43 42 41 40 39 37 36 35 33 31 29 29 29 28 27 27 26 26 25 24 23 23 22 22 21 20 19 19 18 18 17 17 17 16 16 16 16 16 16 16 16 16 16 16 16 16 16 16 16 16 17 17 18 18 19 19 20 21 22 22 23 23 23 23 24 24 24 24 24 24 24 24 24 24 24 24 24 24 25 25 25
48 47 45 44 43 42 41 41 40 38 37 35 34 32 30 30 29 28 27 27 26 26 26 25 24 23 23 22 22 21 20 19 19 19 18 18 17 16 16 16 16 16 16 17 17 16 16 16 16 16 16 16 17 17 17 17 18 19 19 20 21 22 22 23 23 23 24 24 24 24 24 24 24 24 24 23 23 23 23 23 23 24 25 25 25
48 47 45 45 45 44 42 41 40 39 37 36 34 32 31 30 29 29 28 27 26 27 26 25 25 24 23 22 22 21 20 20 20 19 19 18 17 16 16 16 16 16 17 17 17 17 17 17 17 17 17 17 17 17 17 18 19 19 19 20 22 22 23 23 23 23 24 24 24 24 24 24 23 23 23 23 23 23 23 23 23 24 24 25 25
47 47 46 46 46 45 43 41 40 39 38 37 35 33 31 30 30 29 28 27 27 27 27 26 25 24 23 23 22 22 21 20 20 20 19 18 18 17 16 17 17 17 17 17 17 17 17 17 17 17 17 17 17 17 18 18 19 19 20 21 22 22 23 23 24 24 24 24 24 23 23 23 23 23 23 23 23 22 22 23 23 24 24 25 25
47 47 46 46 46 44 43 42 40 39 38 37 36 34 33 31 30 30 29 27 27 28 28 27 26 25 24 23 23 22 21 21 21 20 19 19 18 17 17 17 17 17 17 17 17 18 18 18 18 18 17 18 18 18 18 19 19 20 21 22 22 23 23 24 24 24 25 24 24 23 23 23 23 23 23 23 22 22 22 23 24 24 24 25 26
47 46 46 46 45 44 43 42 41 39 38 37 36 35 34 32 31 30 29 28 28 28 28 28 27 26 25 24 23 22 22 22 21 21 20 19 19 18 17 17 17 17 17 18 18 18 18 18 18 18 18 18 18 18 18 18 19 20 21 22 23 23 23 24 24 24 24 23 23 22 22 22 23 23 23 22 22 22 23 23 24 24 25 25 26
47 46 45 45 44 43 43 42 40 39 38 38 37 36 35 33 31 31 29 28 29 29 29 28 28 27 27 25 24 23 22 22 22 21 20 20 19 18 18 18 18 18 18 18 18 18 18 18 18 18 18 18 18 18 18 18 19 20 21 22 23 23 23 23 23 23 23 22 22 21 22 22 23 23 23 23 22 22 23 23 24 24 24 25 25
47 46 45 44 43 42 42 41 40 39 39 39 38 37 36 34 32 32 30 29 30 30 30 29 28 28 27 26 25 23 22 23 22 22 21 20 19 19 19 18 18 18 18 18 18 18 18 18 18 18 18 18 18 18 18 19 19 21 22 23 23 23 23 22 22 22 22 21 21 22 23 23 23 23 23 23 23 23 23 23 23 23 24 24 24
47 46 45 44 43 42 42 41 40 39 39 39 38 37 36 35 33 33 31 30 31 31 30 29 28 28 27 27 26 24 23 23 23 22 21 21 20 19 19 19 19 19 19 18 18 18 18 18 18 18 18 18 18 18 19 19 20 22 23 23 23 22 22 22 22 22 21 21 21 22 23 24 24 23 23 23 23 23 23 23 23 23 23 24 24
47 45 44 43 43 43 42 41 40 39 39 39 38 37 36 35 34 33 32 31 31 30 30 29 29 28 28 28 27 25 24 23 23 23 22 21 21 20 19 19 19 19 19 19 19 19 18 18 18 18 18 18 18 18 19 20 21 22 23 22 22 22 21 21 21 21 21 21 22 22 23 23 23 23 23 23 23 23 23 23 23 23 23 23 24
45 44 44 43 43 43 42 41 40 39 39 39 38 37 36 35 35 34 32 31 30 30 30 30 29 28 28 28 27 26 25 24 24 24 23 22 22 21 20 20 20 19 19 19 19 19 19 19 19 18 18 18 18 19 20 21 21 22 22 22 22 21 21 21 21 21 21 21 22 22 23 23 23 23 23 23 22 22 23 22 22 22 22 23 23
43 43 43 43 43 43 42 41 40 39 39 39 38 37 36 35 35 34 32 31 30 31 31 30 29 28 28 29 28 26 25 25 25 24 23 23 23 22 20 20 20 20 20 19 20 20 20 19 19 19 19 18 19 19 20 21 21 22 22 21 21 21 20 20 21 21 22 22 22 23 23 22 22 22 22 22 22 22 22 21 21 21 21 22 22
43 43 43 43 43 42 42 41 40 40 39 39 38 38 36 35 36 35 33 31 31 32 32 31 30 29 29 29 28 26 26 25 25 25 24 23 23 23 21 21 21 20 20 20 20 20 20 19 19 19 19 19 19 20 20 20 21 21 21 20 20 20 20 20 20 21 22 22 22 22 22 21 22 22 22 22 21 21 21 21 21 21 21 21 22
43 42 42 43 42 41 41 40 40 40 39 39 38 38 36 36 36 35 33 32 31 32 32 32 31 30 29 29 27 26 26 26 25 25 24 24 24 23 22 21 21 20 20 20 19 19 19 19 19 19 19 19 19 20 20 20 20 20 20 20 19 20 20 20 20 21 22 22 22 21 21 21 21 21 21 21 21 20 20 20 20 21 21 22 23
41 41 41 41 41 40 40 40 40 40 39 39 38 37 36 36 36 35 34 33 32 32 32 32 31 30 30 29 27 26 26 26 25 25 25 24 24 24 23 22 21 21 20 20 19 19 19 19 18 18 18 19 19 19 19 20 20 20 20 19 19 20 20 21 21 22 22 22 22 22 21 21 21 21 21 21 20 20 20 20 21 21 22 22 23
39 39 39 39 39 39 39 40 39 39 39 38 38 37 36 36 36 36 35 34 33 32 32 32 31 31 30 29 28 27 26 26 25 25 25 25 25 25 23 22 21 21 20 20 19 18 18 18 17 17 18 18 18 19 20 20 20 20 20 19 20 20 21 21 21 22 22 21 21 21 21 21 21 21 21 20 20 20 20 21 22 22 22 23 23
37 37 37 38 38 38 38 38 38 38 38 38 38 37 37 36 37 36 36 34 33 33 33 32 32 31 31 30 29 27 26 26 25 25 25 25 25 25 24 22 22 22 21 19 18 18 17 17 17 18 18 18 19 20 21 21 21 20 20 21 21 21 21 21 21 21 21 21 21 21 21 21 21 20 20 20 21 21 21 21 22 22 22 23 23
35 36 37 37 37 37 37 37 37 38 37 37 38 38 37 37 37 37 36 35 34 34 33 33 32 31 31 30 29 28 27 26 25 25 26 26 25 25 24 23 22 22 21 19 18 18 18 18 18 18 19 19 20 21 21 21 20 21 21 22 22 22 22 22 21 21 21 21 21 21 21 21 21 20 20 20 21 21 21 21 22 22 22 23 23
34 34 35 36 36 37 37 37 37 38 37 37 38 37 37 37 37 37 37 36 35 35 34 33 33 32 31 30 29 29 28 27 26 26 26 26 25 24 24 23 22 22 21 20 19 19 18 18 19 19 19 19 20 20 21 20 21 22 22 23 23 23 22 22 22 22 21 21 21 21 21 21 21 20 20 20 20 20 21 21 22 22 22 23 24
33 33 34 35 35 36 37 37 37 37 36 36 37 36 36 36 36 37 36 36 35 35 35 33 33 33 32 31 30 29 28 27 27 27 27 26 25 24 23 23 23 23 22 21 20 19 19 20 20 20 20 20 20 20 20 21 21 22 22 23 23 23 22 22 22 22 22 21 22 22 22 21 21 21 21 21 21 21 21 21 22 22 22 23 24
32 32 32 33 34 35 36 36 36 36 35 35 35 34 34 34 35 36 36 36 35 35 35 34 34 33 32 31 31 30 29 27 26 26 27 26 26 25 24 23 23 23 23 22 20 20 20 21 21 21 21 20 21 21 21 21 22 22 23 23 23 23 23 23 22 22 22 22 22 22 22 22 22 22 22 21 21 21 22 22 22 22 23 23 24
31 31 31 33 33 34 35 36 36 35 35 35 34 33 33 33 33 34 35 34 34 34 35 34 34 33 32 31 30 29 28 27 26 26 27 27 26 25 24 23 23 23 22 22 21 21 21 22 22 22 21 21 22 22 22 22 23 23 23 23 23 23 23 23 23 23 23 23 23 23 22 22 22 22 22 22 22 22 22 22 22 22 23 24 24
31 31 32 32 33 33 33 34 34 35 35 35 34 33 33 33 33 32 33 33 33 34 34 33 33 32 31 30 30 29 28 27 26 26 26 26 26 25 24 24 23 23 22 22 22 22 23 23 22 22 22 22 22 23 23 23 23 23 24 24 24 24 23 23 23 23 23 23 23 23 23 22 22 22 22 22 22 23 23 22 22 23 23 24 24
32 32 31 32 32 32 32 31 32 33 34 34 34 33 32 33 34 32 31 32 33 33 33 32 32 31 30 29 29 29 27 26 25 25 25 25 25 24 24 23 23 23 23 23 23 23 23 23 23 23 22 22 22 23 23 23 23 23 24 24 24 24 23 23 23 23 23 23 22 23 23 23 22 22 22 22 23 23 22 22 22 23 24 24 25
32 33 32 32 32 32 32 31 31 31 31 32 33 32 31 32 34 33 32 32 32 32 32 31 31 30 29 29 28 28 27 26 25 25 25 24 24 23 23 23 23 24 24 24 23 23 23 23 23 23 23 23 23 23 23 23 23 24 24 24 24 24 23 23 23 22 22 23 23 23 23 22 22 22 22 22 22 21 21 22 22 23 24 24 24
32 33 33 32 32 32 32 32 32 32 31 31 32 31 31 32 33 33 33 33 32 31 31 31 30 30 29 28 27 27 26 24 24 24 23 23 23 23 23 23 23 23 24 23 23 23 23 23 23 23 23 23 23 23 23 23 24 24 24 23 23 23 22 22 22 22 22 22 22 22 22 22 21 21 20 20 20 20 21 22 23 23 24 24 24
31 32 33 33 32 32 33 33 33 33 32 32 31 31 31 32 32 32 33 33 32 31 30 30 29 29 28 27 27 26 25 24 23 23 22 22 22 22 22 22 22 22 23 23 23 23 23 23 23 23 23 23 23 23 23 23 23 23 23 22 22 22 22 22 22 22 22 22 22 22 22 22 21 20 19 20 20 20 21 22 23 24 24 24 24
30 30 31 32 32 32 33 33 33 33 34 33 33 32 31 31 32 32 33 32 31 30 30 29 29 28 27 26 26 25 24 23 23 22 21 21 22 22 21 21 22 22 22 22 22 22 22 22 23 23 22 22 22 22 22 22 22 22 22 22 22 23 23 22 22 22 22 22 22 22 21 21 21 20 20 20 20 21 22 22 23 23 24 24 24
29 29 30 31 31 32 32 32 33 33 34 34 33 32 32 31 31 32 32 32 31 30 30 30 30 28 27 26 25 24 24 22 22 21 21 21 21 21 21 22 22 21 21 22 22 22 21 21 21 21 21 21 21 21 21 21 21 21 22 22 22 22 22 22 22 22 22 22 21 21 21 20 20 20 21 21 21 21 22 22 22 22 23 24 24
29 30 31 31 30 30 30 31 31 32 32 32 31 31 31 31 31 31 31 31 30 30 30 30 29 28 27 26 25 24 23 22 21 22 21 21 21 22 21 21 21 21 21 21 21 20 20 20 20 20 20 20 21 21 21 21 21 21 21 21 22 22 22 22 22 22 22 21 21 21 20 20 20 21 21 21 21 22 22 22 22 22 23 23 23
28 29 30 31 30 30 30 30 30 30 30 30 30 30 30 30 30 31 31 30 30 30 30 29 28 27 27 27 26 24 22 22 22 22 22 22 22 22 22 21 21 21 20 20 20 20 20 20 20 20 20 20 20 21 21 21 21 21 21 21 21 22 22 22 22 21 21 21 20 20 20 20 20 20 20 20 20 21 21 21 22 22 22 22 22
25 27 28 29 29 29 29 30 29 29 29 29 29 28 28 29 29 29 29 29 29 29 29 28 27 27 26 26 25 24 22 21 22 22 22 22 22 22 21 21 20 20 20 20 20 20 20 20 20 20 20 20 20 21 21 21 21 22 22 22 22 22 22 21 21 20 20 20 20 20 20 20 20 20 20 20 20 20 20 20 20 21 21 21 20
24 25 26 27 27 28 28 28 28 28 28 27 27 26 26 26 27 27 28 28 28 27 27 26 26 26 25 25 24 23 22 22 22 21 21 22 22 21 21 21 20 20 21 21 20 20 20 20 20 20 20 20 21 21 21 21 22 22 22 21 21 21 21 20 20 19 19 19 19 19 19 19 20 19 19 19 19 19 19 19 19 19 19 19 19
23 24 24 25 25 26 26 26 26 26 25 25 25 24 24 25 25 26 26 26 26 26 25 24 24 24 24 23 22 22 21 21 21 21 21 21 21 21 20 20 21 21 21 20 20 20 20 20 20 20 21 21 21 22 22 21 21 21 21 21 20 20 20 19 19 19 19 19 19 19 19 19 19 19 18 18 18 18 18 18 18 18 18 18 18
21 22 22 22 23 24 24 24 24 23 22 22 23 23 24 24 25 25 25 25 25 24 23 23 23 23 22 21 21 20 20 20 20 20 20 20 20 20 20 21 21 21 21 21 21 21 20 21 21 21 22 22 22 22 21 21 21 21 21 20 20 20 19 19 19 19 19 19 19 19 18 18 18 17 17 17 17 18 18 18 18 18 18 17 17
19 20 20 20 20 21 21 21 21 21 21 21 22 22 23 24 24 23 23 23 23 22 22 22 21 21 21 21 21 20 20 20 20 20 20 20 20 20 20 21 21 21 21 21 21 21 21 21 22 22 22 21 21 21 21 21 21 20 20 20 20 19 19 19 19 19 19 19 18 18 18 17 17 16 16 17 17 17 17 17 18 17 17 17 17
18 19 19 19 19 19 19 19 20 20 20 20 21 22 22 22 21 21 20 20 20 20 20 20 20 21 21 20 20 19 19 19 19 19 20 20 20 20 21 21 21 22 21 21 21 21 21 22 22 22 21 21 21 20 20 20 20 20 20 19 19 19 19 19 19 19 18 18 18 17 17 16 16 16 16 16 16 16 17 17 17 16 16 16 17
18 19 19 19 19 19 19 20 20 19 19 19 19 20 20 20 20 19 19 19 19 19 19 19 19 19 19 19 19 18 19 19 19 19 20 20 20 20 20 21 21 21 21 21 21 21 22 21 21 21 20 20 19 19 19 19 19 19 19 19 19 19 19 18 18 18 18 18 17 17 16 15 15 15 16 16 16 16 16 16 16 16 16 17 18
17 18 19 19 19 19 19 19 19 19 18 18 18 18 18 18 18 18 18 18 18 18 17 17 17 17 17 18 18 18 19 19 19 19 19 19 20 20 20 20 20 20 20 21 21 21 21 20 20 19 19 19 19 19 19 19 19 19 19 19 19 18 18 18 18 18 18 17 17 16 16 16 16 16 16 16 16 16 16 16 17 17 17 18 19
15 16 17 17 17 17 18 18 18 17 17 16 17 17 17 16 16 17 16 16 16 16 16 16 16 17 17 17 18 18 18 18 18 19 19 19 19 19 20 20 20 20 20 20 20 20 20 19 19 19 19 19 19 19 19 19 18 18 18 18 18 17 17 17 17 17 17 17 17 17 17 17 17 17 17 17 17 17 17 17 18 18 19 19 19
13 14 15 15 15 15 15 15 16 16 16 16 16 16 16 16 16 16 16 15 15 15 16 16 16 16 17 17 17 17 18 18 18 18 19 19 19 19 19 20 20 20 20 19 19 19 19 19 19 20 20 20 19 19 19 19 18 18 18 17 17 17 17 17 18 18 17 17 17 18 18 18 18 18 18 18 18 19 19 19 20 20 20 21 21
12 13 14 14 14 14 14 14 14 15 15 16 16 15 15 15 15 15 15 15 15 15 15 16 16 16 16 17 17 17 17 18 18 18 19 19 19 19 19 19 19 19 19 19 19 19 19 19 20 20 20 20 20 19 19 19 18 18 17 17 17 17 17 18 18 18 18 18 19 19 19 19 20 20 20 20 20 20 20 21 21 22 22 22 23
Wind_Direction
211 212 213 213 213 215 216 217 219 222 225 228 229 231 233 233 233 232 232 233 234 236 236 236 237 237 238 240 241 242 242 243 245 249 253 256 259 261 261 260 260 260 260 259 259 260 261 260 260 260 262 264 268 272 275 278 281 284 285 285 286 287 288 289 291 294 297 296 295 296 297 298 301 302 302 303 303 305 306 306 308 310 310 309 308
210 211 211 212 213 215 216 217 219 221 224 227 229 231 232 232 232 231 231 232 234 235 235 236 237 236 237 238 240 240 241 242 246 249 253 256 257 259 260 260 260 260 260 258 257 258 259 259 259 259 262 265 269 273 277 280 283 285 286 286 287 288 289 289 291 293 295 296 295 296 297 298 300 301 302 303 304 305 306 306 308 309 309 310 310
210 210 211 212 213 214 216 217 218 220 223 227 229 230 231 231 231 231 231 232 233 234 235 236 236 235 236 237 238 238 239 242 245 249 252 255 256 258 259 260 261 260 259 258 257 256 257 257 258 260 263 266 270 274 278 281 284 286 286 287 288 289 289 290 291 293 295 296 297 297 297 298 300 301 302 303 305 306 306 306 307 308 308 309 311
210 210 211 212 213 214 215 217 218 219 223 227 228 229 230 231 231 230 231 231 232 233 234 235 235 234 234 236 237 237 239 241 244 248 252 254 255 257 258 259 260 260 258 257 256 255 254 256 258 260 263 267 270 275 279 281 284 285 286 288 289 290 291 291 291 293 295 297 297 297 297 299 300 301 302 304 305 306 307 307 308 309 309 310 310
211 211 211 212 213 214 215 216 218 220 224 227 228 228 229 230 230 230 230 231 231 232 233 234 234 233 233 235 237 237 238 240 244 247 251 253 254 256 258 259 259 258 257 256 255 254 254 255 258 260 262 266 271 275 278 281 283 285 287 289 290 291 292 292 293 295 296 296 297 297 298 299 300 302 303 305 307 307 307 307 307 308 310 311 310
211 211 212 213 214 214 214 216 218 220 223 226 227 227 228 230 230 229 230 230 230 231 232 232 233 233 233 234 236 236 238 241 244 248 250 251 253 255 258 258 257 256 255 254 253 254 255 257 259 261 264 267 272 275 278 280 282 285 287 289 291 292 292 294 295 296 296 296 297 298 298 299 301 303 305 306 307 308 307 308 308 309 310 312 311
211 212 213 213 214 214 214 216 217 220 223 225 226 226 227 229 230 229 229 229 229 230 230 231 232 232 233 234 235 236 238 241 245 248 250 250 252 254 256 256 255 255 255 254 253 253 255 258 260 263 266 269 272 274 277 280 283 285 287 289 292 293 294 296 297 297 296 296 297 298 299 301 303 304 306 307 307 308 308 309 310 310 311 312 312
211 211 212 213 213 214 215 216 217 220 222 224 225 225 226 228 229 229 229 228 229 229 230 230 231 232 233 233 234 236 237 241 244 247 249 250 251 253 255 255 254 254 255 254 253 254 256 259 261 264 266 269 271 274 277 280 283 286 288 291 292 294 296 297 298 297 297 297 298 299 301 302 303 305 306 307 307 307 308 310 311 312 312 312 312
210 211 212 212 213 214 214 216 218 219 221 222 223 224 225 227 228 228 228 228 228 229 229 229 230 231 232 232 234 235 237 241 244 246 248 249 250 253 254 253 252 252 253 254 254 255 257 260 262 264 266 269 272 275 278 282 286 288 289 292 294 296 298 299 298 298 298 297 298 300 301 302 303 304 305 306 307 308 309 310 311 312 312 313 313
210 210 211 212 213 213 214 216 218 218 219 220 222 223 224 226 227 227 227 227 228 228 228 228 229 230 231 232 233 235 238 242 243 244 246 248 250 253 254 253 252 251 252 253 254 256 257 260 263 264 267 271 274 277 280 284 288 291 291 292 295 297 299 300 299 299 298 298 298 299 300 301 302 304 305 306 306 308 309 310 312 313 313 314 315
209 210 211 212 212 213 215 216 218 218 218 219 220 222 224 225 226 226 226 227 227 228 227 227 228 229 231 232 233 236 239 241 242 243 245 247 249 252 254 253 252 251 251 253 254 256 258 261 264 266 268 272 275 279 283 286 289 290 291 293 296 298 299 300 300 299 298 298 299 299 300 301 303 305 306 306 306 307 309 310 312 313 314 315 316
209 210 211 212 212 213 215 216 217 217 217 217 219 221 223 225 225 225 226 226 227 227 227 227 227 229 231 232 233 236 238 239 241 243 244 246 248 252 253 253 252 252 252 253 254 256 259 262 265 268 270 272 276 280 283 286 288 289 290 294 297 298 299 299 300 300 299 298 299 299 300 301 304 305 305 306 306 307 308 310 311 313 314 315 316
209 210 211 212 213 214 215 215 216 216 217 217 219 221 223 224 225 225 225 226 227 227 227 226 227 229 231 232 234 236 238 239 240 242 243 245 247 251 253 252 252 253 253 253 255 257 260 263 266 269 272 274 277 281 282 284 287 288 291 295 298 298 298 298 298 299 299 299 298 298 300 302 304 306 305 305 305 307 308 310 312 313 314 315 316
209 210 211 212 213 214 214 215 215 216 217 217 219 221 223 224 225 225 225 225 226 227 227 226 227 229 230 232 234 236 238 239 239 241 242 244 246 250 252 252 253 253 253 254 256 259 262 265 267 270 273 274 277 280 282 284 286 289 292 295 297 297 297 297 297 297 297 298 298 298 300 302 303 305 305 304 305 306 308 311 312 313 314 315 315
208 210 211 212 213 213 213 214 215 215 216 217 218 220 223 224 225 225 225 226 227 228 227 227 227 229 230 232 234 236 238 238 239 240 241 243 246 249 252 252 253 254 254 255 258 261 263 266 268 271 273 274 276 280 283 285 288 290 293 295 296 297 297 297 296 296 296 296 297 299 300 301 303 304 305 304 305 306 308 310 311 312 314 314 315
208 209 210 211 212 213 213 213 214 215 216 217 218 221 223 225 225 225 225 227 228 228 228 227 228 229 230 232 234 236 238 238 238 239 241 243 245 248 251 252 252 254 255 256 259 262 264 266 269 271 273 274 276 279 283 286 290 292 294 295 296 296 297 297 296 296 296 296 297 299 300 301 303 304 304 305 305 306 308 309 310 311 313 314 315
208 209 210 211 212 212 212 212 213 214 216 218 219 222 224 225 226 225 225 226 228 228 228 227 228 229 229 230 233 235 237 238 237 238 240 242 244 247 250 251 252 254 255 257 260 262 264 267 269 271 273 275 276 278 282 287 291 293 295 296 297 296 297 297 296 295 296 297 298 298 299 300 302 302 303 303 304 305 307 308 310 312 313 315 317
208 209 210 210 211 211 211 212 213 215 218 219 221 223 224 225 225 226 226 226 228 228 227 227 228 229 229 230 232 235 238 237 236 237 239 241 244 247 250 251 252 253 255 257 260 262 265 267 268 271 273 275 277 279 282 287 291 294 295 296 297 297 296 296 296 295 296 296 296 297 297 299 300 301 301 302 302 303 304 306 309 312 313 315 317
208 209 209 210 211 211 212 214 216 218 220 221 221 222 223 225 226 226 226 227 228 228 227 227 228 229 230 231 232 236 237 236 235 237 239 241 243 247 250 250 251 253 255 257 259 262 265 266 267 271 274 275 277 280 282 286 290 293 295 297 297 296 296 296 296 296 296 296 296 296 297 298 299 300 300 300 300 301 302 304 307 309 312 314 317
208 209 210 210 211 212 214 216 218 219 220 221 222 222 223 224 225 225 227 228 229 228 226 227 228 229 230 231 233 236 237 236 236 238 240 241 243 247 250 250 251 253 254 257 258 260 264 266 265 269 274 275 277 280 282 285 289 293 295 296 296 296 296 296 296 296 296 297 297 298 299 300 301 300 300 300 300 301 301 303 305 307 310 313 315
208 210 211 211 213 214 216 218 218 219 220 221 222 222 223 224 225 225 227 229 229 228 227 227 228 229 230 231 232 235 237 236 237 239 240 241 243 246 249 250 251 252 254 256 258 260 263 264 265 268 272 274 276 280 282 285 289 293 296 296 296 297 297 296 295 295 296 298 299 299 300 302 302 301 301 301 302 302 302 302 303 304 307 311 314
208 210 211 212 213 215 217 218 219 219 220 221 222 222 223 224 224 225 227 229 229 228 226 227 228 228 229 230 232 235 237 236 237 238 240 241 242 244 248 250 251 252 253 255 258 260 262 264 266 269 271 274 278 281 284 287 290 293 295 296 297 296 296 296 296 296 297 298 300 300 301 302 302 302 302 302 302 302 302 302 302 303 305 309 312
208 209 210 212 214 216 217 218 219 219 220 220 221 221 222 222 223 225 227 229 229 228 227 228 228 228 229 230 232 234 236 236 236 238 239 240 241 243 247 250 250 251 253 254 257 260 261 264 268 270 272 276 280 282 285 288 290 293 294 295 296 295 294 295 296 296 297 298 299 300 300 301 302 302 302 302 302 302 301 301 302 304 305 307 310
207 209 210 212 214 216 217 217 218 218 218 219 219 219 220 222 224 226 227 229 229 228 227 227 227 227 228 230 231 233 235 236 237 237 239 240 241 242 246 249 249 250 253 255 257 260 263 266 269 271 273 278 281 283 286 288 290 291 293 294 295 294 293 294 295 296 297 299 299 299 299 300 301 302 303 303 303 302 302 302 303 303 305 307 309
207 208 210 213 215 216 216 216 216 216 217 218 218 218 220 223 225 226 227 228 228 227 227 227 227 228 229 230 231 232 234 236 237 237 238 240 241 242 245 247 246 247 251 255 258 261 264 266 269 272 276 280 283 285 287 288 289 290 292 293 293 293 292 292 294 296 297 298 298 298 299 300 301 302 303 303 303 303 303 303 303 304 305 307 308
208 209 211 213 213 214 214 214 215 216 217 219 219 220 222 225 226 226 227 228 228 227 227 227 228 228 229 231 231 232 233 236 237 237 237 239 241 243 244 245 245 246 250 255 257 259 263 266 269 273 278 281 284 286 287 287 287 289 290 291 291 290 290 291 293 295 296 297 297 298 299 300 302 303 303 303 302 303 304 304 305 306 307 308 310
208 209 209 210 211 211 212 213 215 216 218 220 221 222 225 226 226 226 226 227 227 227 226 227 228 228 229 231 231 232 234 236 237 237 237 238 241 243 244 243 243 245 247 251 255 259 264 267 270 275 279 282 284 285 286 286 285 286 288 289 289 289 290 292 294 295 296 297 297 298 299 301 302 303 303 303 304 304 304 305 306 307 309 310 312
207 207 208 210 211 212 213 214 215 217 219 220 221 223 224 226 226 226 225 226 226 226 226 227 227 228 229 230 230 232 234 236 236 235 236 237 240 243 243 240 240 241 243 247 253 259 263 267 272 276 279 282 283 284 285 285 285 287 288 290 291 291 291 292 293 294 295 295 296 297 298 300 300 301 301 302 303 305 305 305 306 308 310 311 312
207 207 208 210 212 213 214 215 216 217 219 220 221 223 225 226 226 225 226 227 227 226 226 226 226 227 229 230 229 231 233 236 235 234 235 237 239 240 240 238 238 241 243 246 252 258 262 267 271 275 278 281 282 283 284 285 286 288 290 290 292 292 292 292 292 292 293 293 294 294 295 296 298 298 298 299 302 304 304 304 306 308 310 310 311
207 208 209 211 213 214 215 215 217 218 219 220 221 224 225 225 225 225 226 227 227 225 225 226 226 227 229 230 230 230 232 234 234 234 235 236 237 237 237 237 239 241 243 247 253 259 263 267 271 275 278 280 280 281 282 284 287 289 291 291 292 292 292 292 291 291 292 292 292 292 292 294 295 295 295 297 300 302 302 303 304 307 308 309 310
209 210 211 213 214 215 216 216 217 219 220 220 220 222 224 225 226 226 225 225 225 225 225 224 224 225 228 229 229 230 231 232 233 233 233 234 235 236 237 238 240 242 245 249 255 261 265 268 272 275 277 278 279 280 281 284 287 289 291 292 292 292 291 290 289 290 291 291 291 291 291 292 292 292 293 295 297 300 301 302 304 306 307 308 309
214 214 214 215 215 215 216 217 218 219 220 221 222 223 223 223 224 225 225 224 223 223 223 223 223 224 226 227 228 229 229 231 233 233 233 232 233 235 237 238 241 245 248 252 257 262 265 269 272 275 276 277 278 279 281 284 287 289 290 291 292 292 291 290 289 288 289 290 290 290 291 291 290 290 291 292 294 297 300 301 303 305 307 308 309
217 217 216 215 215 216 216 217 218 219 221 222 223 224 224 222 220 221 224 225 223 222 222 222 223 224 225 226 226 226 227 229 231 233 232 232 232 234 236 239 242 245 248 252 258 262 266 269 271 273 275 277 279 280 282 284 286 288 289 290 291 291 291 291 290 289 288 288 289 290 290 290 290 289 289 290 292 295 297 300 303 305 307 308 308
217 217 216 215 216 217 218 219 219 220 222 222 222 223 223 220 218 219 221 222 222 221 222 222 222 223 224 225 224 223 225 227 229 230 230 231 232 233 235 239 242 245 248 253 259 263 266 269 270 272 274 277 279 281 283 284 285 287 288 289 290 290 291 291 291 290 289 288 289 289 289 289 289 289 290 291 292 294 296 299 302 305 306 307 308
218 217 216 215 217 218 220 220 220 220 221 221 221 222 221 220 219 220 221 220 220 220 221 221 221 222 222 221 221 222 223 225 227 227 228 229 230 232 235 239 243 247 251 255 260 264 266 268 270 272 275 277 279 281 282 284 285 286 286 287 289 290 291 291 290 290 290 289 288 288 287 287 288 289 289 290 292 294 297 299 302 304 305 306 307
218 216 215 216 218 220 220 220 220 221 221 221 221 222 221 221 221 221 221 221 220 219 219 219 218 218 218 219 220 221 222 224 224 224 224 226 229 232 236 241 245 249 252 256 260 264 267 269 271 273 275 277 278 280 282 283 284 285 285 287 288 288 289 289 289 289 290 289 289 288 287 286 286 287 288 290 292 294 296 298 300 303 305 305 306
218 217 217 218 220 221 221 220 220 221 221 222 221 220 220 221 221 221 222 221 219 216 216 216 214 214 215 217 218 220 220 221 221 221 223 227 231 235 240 245 248 251 255 259 262 265 268 271 272 273 274 276 278 280 281 282 283 284 285 286 287 287 288 288 289 289 289 289 288 288 287 285 285 285 286 288 290 292 295 297 300 302 304 304 305
220 220 220 220 222 222 221 221 221 220 220 220 219 218 219 220 220 220 221 221 216 213 214 213 212 212 213 214 215 216 217 217 219 222 227 231 234 239 244 248 251 254 258 261 264 267 269 271 272 273 274 276 277 279 281 282 283 284 284 286 287 287 288 288 288 289 289 288 287 287 286 286 285 284 285 287 289 292 295 298 301 303 304 305 305
222 221 220 220 222 222 220 219 219 218 218 218 218 220 221 221 220 220 220 219 215 212 212 212 212 212 212 211 212 214 216 218 220 225 230 234 237 242 247 250 253 257 260 262 265 267 269 270 271 272 274 276 277 278 279 281 282 283 284 285 286 287 287 288 288 288 288 287 287 287 286 286 286 286 286 288 289 292 294 297 300 302 304 306 306
221 221 220 220 221 220 219 218 217 217 217 218 219 221 222 220 219 219 218 216 213 212 211 211 211 212 211 210 211 214 218 221 224 227 232 235 239 244 249 252 255 258 261 264 266 267 268 270 271 272 274 276 277 278 279 281 282 283 284 284 285 286 287 287 287 286 286 286 286 286 286 286 287 287 288 289 291 293 295 297 301 303 304 305 305
217 217 217 217 217 217 217 217 216 216 217 218 220 220 219 218 218 217 215 213 211 210 211 211 211 210 210 210 212 216 220 224 227 230 234 238 242 247 251 254 256 259 262 264 266 267 268 269 271 273 274 275 277 278 279 281 282 283 283 284 285 286 287 287 286 285 285 286 286 286 286 287 287 288 289 290 291 293 295 298 302 304 305 304 304
214 213 213 214 215 215 216 215 215 214 215 216 218 218 216 215 214 212 209 207 206 207 208 209 209 208 208 209 213 219 224 227 230 234 238 241 245 249 252 255 257 260 262 264 266 266 267 268 271 272 274 275 277 279 280 281 282 283 283 284 285 286 286 286 286 285 286 286 286 286 286 287 288 289 289 290 292 294 296 299 301 303 304 304 304
210 210 210 211 212 212 211 210 210 210 211 213 214 213 210 208 206 203 201 200 201 203 204 205 205 205 207 211 217 223 228 231 235 238 241 243 246 250 253 256 258 260 262 264 265 266 267 269 271 273 274 275 277 279 280 281 282 282 282 283 284 284 284 284 285 286 287 287 287 287 287 287 288 289 289 289 291 294 297 299 300 301 302 304 304
204 205 207 208 207 205 203 203 204 205 206 207 207 205 201 198 196 194 194 196 197 199 200 201 202 205 210 216 222 227 232 236 238 241 243 245 248 251 253 255 257 259 261 262 264 265 267 269 271 273 274 276 277 278 279 280 280 281 282 282 283 283 283 284 285 286 287 287 287 288 288 288 287 287 288 290 293 295 296 297 298 299 300 302 304
195 196 197 197 196 194 194 194 195 196 196 196 194 192 190 189 188 189 191 194 196 198 201 203 205 209 214 220 225 231 236 239 241 243 245 248 250 251 253 254 255 257 259 261 263 265 267 270 272 273 275 276 276 277 277 278 279 280 281 281 281 282 283 284 285 286 287 287 287 288 288 287 287 287 289 291 294 295 296 297 297 298 299 302 304
181 182 181 179 180 181 181 182 183 183 182 180 179 179 180 182 185 188 192 195 197 200 203 206 210 214 219 223 229 234 238 241 243 245 247 249 250 252 254 255 256 257 259 261 264 266 268 271 273 273 274 275 276 276 277 277 278 279 279 280 281 282 283 284 285 285 286 287 287 286 286 285 286 287 290 292 294 296 296 297 298 299 300 301 303
163 165 166 166 168 169 170 170 171 172 172 173 174 177 180 183 186 189 192 194 198 201 206 210 214 219 224 228 233 238 241 243 246 248 249 250 252 254 256 256 257 258 260 263 265 267 269 271 272 273 273 273 274 276 277 278 278 278 278 279 280 282 283 284 284 285 286 285 285 284 283 283 285 288 290 292 294 295 296 296 297 299 300 301 303
148 151 153 156 158 160 162 163 165 167 170 172 174 176 178 182 186 190 195 199 203 208 212 216 220 225 229 233 237 240 243 246 248 249 250 252 254 255 256 257 258 260 263 265 267 268 269 270 270 271 271 272 274 276 277 277 277 277 278 279 280 281 282 282 283 284 285 284 282 282 281 281 283 287 290 292 293 294 295 296 296 298 300 301 303
146 147 149 150 153 156 159 161 163 167 171 175 178 180 184 189 194 199 204 207 211 215 218 222 225 229 232 235 239 241 244 246 248 249 251 253 254 256 257 258 259 262 265 266 267 268 268 268 268 269 270 272 273 274 275 276 276 277 278 279 280 280 281 281 282 284 284 283 281 280 280 280 282 285 288 290 292 292 293 295 296 298 299 301 302
159 159 160 160 162 164 166 168 170 174 178 182 185 190 195 199 203 207 210 213 217 220 223 226 229 233 236 238 241 243 245 247 249 250 252 253 255 257 259 260 261 264 265 266 266 267 267 267 268 268 269 270 271 272 273 274 275 276 278 279 278 279 280 281 282 283 283 282 281 280 279 279 281 284 286 288 290 290 291 293 294 296 298 299 301
165 167 170 172 174 176 177 180 183 186 189 191 194 197 201 205 209 213 216 219 222 225 228 231 233 237 240 242 243 245 247 249 250 251 253 255 257 258 260 261 262 263 264 265 266 267 267 267 268 267 268 269 270 271 273 274 275 276 277 277 277 279 281 281 282 282 282 281 280 280 279 280 282 283 285 286 288 289 291 292 293 295 296 298 299